GFSSE_prec_cthk_084.txt.gz
RH
62 60 66 70 66 61 67 66 62 60 66 71 68 77 71 64 52 41 31 26 27 29 27 28 24 18 15 15 13 13 14 15 14 17 18 17 17 19 20 20 25 27 28
64 69 71 70 71 72 62 66 57 57 57 68 75 75 72 62 46 37 32 28 30 27 25 24 21 17 17 15 15 17 17 16 17 21 21 23 22 23 19 20 23 25 27
66 70 74 76 65 68 59 62 58 55 54 63 72 69 68 52 40 37 33 31 31 28 25 22 21 22 24 25 21 16 16 17 17 18 17 21 26 27 26 27 27 26 26
59 63 59 67 73 66 67 66 61 56 56 59 68 63 55 45 38 37 33 32 32 30 26 23 26 26 26 21 20 19 18 19 19 18 18 24 27 28 27 26 24 24 24
55 67 69 65 65 70 66 70 64 58 57 57 64 68 49 40 37 36 32 33 30 27 34 30 29 31 27 25 24 20 21 20 20 19 18 20 24 24 23 22 23 23 22
61 72 89 79 69 64 68 64 62 57 54 54 57 61 54 39 35 34 36 37 32 31 31 33 34 34 32 30 27 24 24 24 24 22 22 23 20 18 16 15 18 16 16
70 71 83 94 82 76 74 75 68 55 52 58 61 50 57 34 36 40 40 40 34 33 34 35 38 37 37 35 30 31 29 28 27 28 29 23 21 18 17 16 15 12 10
74 84 87 90 95 85 79 72 68 58 55 64 63 48 56 37 38 41 43 40 40 38 38 40 41 40 39 39 38 36 34 32 30 31 24 21 19 18 16 13 11 9 9
75 81 88 90 97 93 91 96 84 63 60 62 66 53 59 36 39 40 41 43 43 43 45 45 44 43 41 42 41 41 38 35 32 30 23 20 17 16 14 12 11 12 12
69 77 86 88 92 97 96 97 95 87 79 73 65 54 64 40 38 38 43 52 48 49 48 48 49 45 48 44 43 43 42 38 33 27 23 20 18 16 14 14 14 14 14
67 75 86 87 89 91 95 94 95 96 92 84 69 52 56 37 39 40 47 52 52 52 52 54 51 48 56 50 48 49 41 36 32 27 23 22 19 19 16 15 15 16 16
61 71 88 89 90 86 87 88 98 97 93 93 78 58 55 40 42 44 51 52 54 55 57 57 54 55 60 56 55 44 41 35 28 24 22 20 21 18 17 16 17 18 18
62 61 78 87 93 91 91 95 96 97 98 94 69 57 50 45 48 52 53 55 54 57 58 58 57 59 61 54 54 44 40 36 30 25 23 20 20 18 17 18 20 20 20
62 62 73 81 90 91 88 94 98 98 98 94 86 61 57 48 50 55 60 60 61 62 64 62 60 63 57 51 47 42 38 36 33 27 21 21 20 20 21 22 22 23 23
69 65 79 78 88 93 90 89 98 97 96 96 82 64 58 51 54 58 64 66 67 70 72 69 67 62 56 50 46 42 39 37 32 28 23 24 27 27 26 26 27 27 27
67 70 79 77 87 90 93 98 98 97 94 96 88 65 62 54 63 60 68 68 73 75 75 73 70 65 62 54 49 45 42 37 30 28 28 29 32 32 32 31 31 32 31
69 73 81 79 86 86 95 97 96 96 92 88 90 84 66 67 68 71 70 74 76 80 79 76 69 67 65 60 53 49 45 36 29 28 28 30 33 35 36 36 37 36 35
72 76 78 76 81 88 87 91 93 93 92 93 89 88 80 74 74 75 77 77 80 81 80 76 68 67 67 62 58 54 45 37 32 31 30 32 34 36 40 39 39 39 40
75 78 76 77 81 93 92 92 94 93 88 84 87 90 86 83 81 77 77 78 82 80 80 75 69 68 68 67 68 66 51 39 34 34 32 32 35 39 43 45 47 47 47
74 74 76 75 79 91 94 91 94 93 91 92 90 95 90 87 84 80 79 78 78 77 74 72 69 69 67 77 77 73 60 47 44 43 42 40 41 43 46 50 54 57 58
75 74 73 80 82 89 92 92 94 91 88 90 89 90 93 90 83 80 79 78 78 73 70 66 67 69 75 85 81 75 64 56 58 58 57 55 56 61 64 68 69 70 70
75 78 80 83 93 95 94 94 93 89 89 96 97 96 91 88 82 80 80 78 75 68 63 65 72 76 78 80 78 81 75 69 70 70 73 73 78 79 80 80 80 79 78
54 60 65 76 84 91 97 96 94 89 87 90 91 88 90 88 85 79 77 72 70 66 65 70 73 76 78 81 84 85 85 79 75 77 77 79 78 83 83 84 83 83 84
42 46 49 55 62 69 75 76 78 72 72 78 80 86 88 81 78 79 71 67 64 63 68 67 67 68 72 77 84 86 84 83 85 81 86 80 77 85 89 85 87 88 86
31 36 36 39 46 49 53 54 56 60 61 65 70 75 70 70 70 69 62 58 56 58 59 58 59 67 71 75 80 88 89 84 77 81 76 76 78 85 87 83 83 88 88
37 33 30 29 32 37 40 41 42 46 48 50 49 51 51 52 54 52 52 54 56 57 60 66 73 79 82 87 88 90 91 83 80 83 73 75 72 70 74 73 76 81 78

GFSSE_prec_cthk_087.txt.gz
RH
52 54 55 58 62 59 58 60 63 65 66 67 67 68 70 67 61 46 33 22 24 25 27 28 26 22 18 18 17 17 18 20 18 18 20 21 22 23 24 27 29 30 31
54 61 66 68 71 69 59 62 67 67 67 67 66 70 68 69 62 47 35 27 30 32 31 27 20 19 20 19 22 27 28 26 24 21 18 19 21 20 20 19 24 26 26
50 60 67 76 82 66 63 68 68 67 63 63 65 71 73 65 59 47 34 31 33 34 29 23 19 21 21 22 25 25 24 22 19 18 22 26 27 25 23 23 23 22 22
48 55 57 59 62 75 66 63 64 62 60 61 64 70 75 62 51 38 33 32 33 32 27 24 23 23 21 20 21 21 21 21 20 20 28 31 30 26 26 25 25 19 19
47 54 62 55 57 66 65 70 59 60 59 60 59 64 70 55 46 36 34 33 35 34 31 27 27 23 22 21 20 20 20 21 21 24 28 28 28 28 26 24 20 19 18
53 58 68 83 87 70 73 68 69 58 60 61 57 57 58 64 51 36 34 33 38 33 36 33 32 32 28 22 21 21 22 21 21 28 27 26 29 26 18 14 16 17 15
56 64 70 73 94 97 81 70 70 62 58 58 56 51 60 63 45 35 33 36 40 38 37 37 35 34 27 25 24 24 25 26 27 28 30 32 32 26 19 16 16 15 12
54 71 80 88 86 98 97 88 71 66 57 56 51 54 56 65 47 36 34 40 35 38 42 44 42 39 33 31 30 30 31 30 29 30 36 32 30 22 19 17 14 12 11
59 68 76 84 98 89 96 97 90 73 69 56 49 54 58 64 51 37 37 36 38 42 46 47 46 45 44 39 37 35 33 33 32 34 36 34 24 22 19 17 16 14 13
56 65 78 84 88 93 94 98 95 90 70 63 57 56 58 57 53 36 35 37 43 48 52 51 51 52 47 42 41 39 37 36 35 34 35 27 22 21 19 18 15 14 14
58 69 70 85 86 93 94 95 98 96 90 81 64 58 60 60 62 36 36 40 49 53 54 54 56 54 49 45 53 42 41 43 38 34 31 25 25 22 20 18 17 17 16
58 67 66 79 88 91 90 96 96 98 97 91 78 66 62 60 61 39 38 45 51 55 58 59 58 55 53 53 57 51 47 41 36 32 33 26 25 22 19 17 18 19 19
54 57 63 74 87 91 94 96 95 98 98 96 89 77 62 58 55 39 41 52 54 58 60 62 62 59 55 55 56 51 47 41 36 30 26 24 23 21 20 19 19 20 21
56 64 63 74 86 91 96 97 95 93 97 99 95 77 61 59 56 44 46 51 55 60 60 65 62 61 58 58 56 51 49 41 36 31 26 25 23 21 21 22 23 23 23
62 73 72 80 82 91 95 95 95 94 98 98 93 80 66 64 60 48 50 52 58 59 64 66 64 63 59 56 52 48 45 42 37 32 31 29 25 25 26 26 26 26 27
66 66 74 80 85 90 92 94 95 97 100 97 89 80 69 54 49 50 53 55 61 66 68 66 68 66 59 56 56 53 49 43 37 35 34 33 30 30 31 32 31 31 30
66 69 78 80 86 90 88 92 95 98 99 95 89 76 70 62 61 58 61 64 69 71 74 72 74 69 64 60 59 56 52 46 42 38 35 33 34 33 33 34 34 34 33
66 74 75 81 88 91 92 93 98 99 99 97 90 78 75 71 69 65 72 78 77 79 77 77 75 73 70 66 63 59 55 50 47 40 30 29 31 33 34 35 37 38 40
68 76 81 84 84 91 97 98 99 96 98 96 92 83 77 77 73 76 81 85 86 84 84 82 81 78 76 73 69 64 62 55 46 40 34 31 33 34 36 37 39 41 44
71 68 78 78 88 93 97 97 98 97 97 95 93 91 84 82 80 87 85 88 89 88 85 83 81 79 78 77 75 78 74 65 55 51 46 43 42 43 44 47 48 54 58
74 79 80 74 81 90 94 96 95 97 97 96 95 88 87 81 86 85 85 83 84 83 82 81 81 79 77 74 75 84 81 73 68 62 57 57 59 59 62 66 68 72 73
70 72 72 76 81 82 92 92 94 96 98 97 94 90 94 90 89 88 83 83 82 81 79 75 75 74 72 72 76 83 79 77 79 77 71 69 69 68 69 71 79 82 82
59 64 72 79 81 85 90 94 94 93 92 93 96 96 91 90 88 84 85 83 81 79 79 72 66 66 74 79 80 82 83 82 85 85 81 78 78 78 77 78 85 87 86
44 49 56 67 79 86 91 96 96 90 91 91 91 91 94 92 90 87 85 79 74 75 74 67 65 71 76 77 74 73 78 81 86 85 83 88 87 84 93 80 81 89 82
32 38 41 47 58 68 76 83 86 80 77 79 87 87 91 90 90 80 72 69 70 72 70 71 70 69 68 68 65 67 72 76 85 89 86 81 83 83 79 74 72 74 65
33 29 30 34 39 46 50 56 58 59 58 66 71 72 74 70 69 68 67 70 67 64 64 65 65 65 67 65 69 76 79 87 90 93 89 84 84 76 84 75 83 80 66

GFSSE_prec_cthk_090.txt.gz
RH
45 47 44 52 52 60 63 60 62 67 67 68 68 70 64 59 56 52 37 22 20 26 28 31 29 22 25 25 25 25 27 30 30 32 31 30 31 36 36 39 40 36 38
43 54 50 53 59 65 62 64 62 65 68 67 69 69 71 73 61 56 37 23 24 30 33 33 27 21 22 20 22 27 27 26 28 27 29 31 31 32 31 31 32 31 33
36 49 57 60 62 62 75 64 61 61 62 62 65 66 68 77 69 49 37 28 30 35 35 28 25 24 18 20 21 25 24 22 21 23 26 31 27 23 23 26 26 27 28
40 48 58 62 66 70 81 79 72 67 65 63 60 62 68 75 73 63 44 34 38 35 29 22 23 22 21 21 22 22 22 24 27 30 36 36 28 26 25 23 24 23 22
41 47 60 62 63 62 44 72 89 80 74 64 61 61 69 81 67 54 43 32 34 33 27 21 21 22 21 22 22 21 21 25 29 41 40 36 32 28 27 24 18 17 17
41 46 52 62 73 77 66 82 85 91 72 65 66 62 63 73 67 52 38 31 32 33 25 25 26 24 24 24 23 22 22 25 34 38 34 31 28 26 24 21 14 14 14
46 49 50 65 87 98 92 91 81 76 76 68 68 63 59 56 63 56 40 33 33 31 29 29 26 25 25 23 23 23 25 30 37 35 36 34 29 23 21 16 13 13 13
48 50 55 70 79 74 76 94 97 63 81 72 67 67 57 56 72 60 38 36 37 33 34 35 33 31 29 27 26 27 29 35 41 40 39 33 25 22 19 15 14 14 13
56 60 60 61 72 85 81 84 95 82 85 71 64 65 58 60 75 63 39 37 36 37 38 40 40 37 33 32 30 32 34 41 45 43 40 35 30 23 18 17 17 17 16
61 67 63 65 75 90 88 89 98 85 89 73 65 64 57 61 68 62 43 36 36 41 45 46 45 42 40 37 38 36 39 39 43 45 42 36 29 25 20 20 19 18 15
62 64 68 66 74 89 94 97 97 89 98 88 74 60 58 60 73 61 49 38 39 45 47 46 47 47 46 44 43 43 46 44 45 49 42 33 30 25 22 20 20 17 16
59 72 64 64 72 89 92 92 91 99 99 93 75 63 62 62 74 64 51 40 41 47 51 52 52 51 46 46 46 49 56 49 49 50 41 33 28 26 23 22 21 20 19
45 54 62 61 69 86 89 87 88 92 97 95 82 74 69 71 71 63 55 44 44 51 56 56 54 54 56 54 50 54 53 51 49 46 37 31 29 28 24 22 22 22 22
42 54 63 71 71 85 90 92 90 90 98 97 96 88 79 73 73 66 60 50 45 56 59 59 57 62 60 55 56 54 52 51 51 45 37 30 27 24 23 23 24 24 23
45 57 67 67 73 85 89 94 96 95 96 97 96 95 89 77 69 65 66 49 52 58 63 64 65 65 60 56 54 51 48 49 46 46 42 32 29 28 27 26 26 26 27
48 58 69 75 85 84 93 96 98 99 99 98 97 97 85 81 69 64 52 50 55 59 68 66 66 65 63 63 56 54 50 50 47 47 44 36 34 34 32 31 32 30 29
48 61 66 78 84 88 97 91 94 95 97 98 98 95 85 72 60 65 62 54 56 61 66 66 67 65 67 63 59 55 54 53 51 48 44 45 40 39 40 34 32 32 33
51 61 67 77 79 87 88 88 96 93 97 98 97 94 83 69 65 68 59 58 57 61 66 68 68 71 70 65 63 61 58 58 56 49 49 49 44 40 35 35 35 36 36
59 66 69 72 77 80 88 92 95 98 99 98 96 90 85 76 68 61 64 64 66 67 73 73 75 78 74 69 67 65 61 60 58 55 48 45 42 39 40 37 36 37 37
65 66 70 74 81 80 91 95 97 99 99 98 94 90 83 76 76 72 72 73 75 80 84 83 81 81 77 74 72 74 72 69 66 57 55 53 52 49 50 52 50 51 49
65 64 68 71 76 84 94 98 98 98 97 97 93 88 84 82 80 82 84 86 87 85 89 87 86 84 82 79 78 76 78 81 77 72 69 68 67 68 65 64 65 65 68
65 67 69 70 69 80 90 94 94 97 98 96 93 91 86 84 89 88 88 89 86 88 88 86 84 84 83 80 78 75 75 80 83 79 77 76 75 72 70 73 70 69 72
53 60 65 68 70 73 83 92 96 97 98 97 95 93 89 89 89 85 85 85 87 84 84 84 83 80 79 74 71 73 82 83 86 81 81 83 83 82 79 77 74 73 73
41 49 57 65 72 74 80 90 91 94 95 96 95 92 91 87 86 87 84 84 83 83 82 81 78 73 69 69 68 74 79 82 83 87 86 86 86 83 82 87 87 79 77
29 37 43 50 65 76 83 88 92 94 95 93 94 92 90 91 87 86 85 83 82 80 76 73 71 68 66 68 72 75 73 74 72 73 75 86 87 88 84 84 82 79 75
33 31 30 38 46 57 70 78 83 85 81 80 84 84 86 90 87 85 82 74 72 68 65 66 65 67 68 67 67 73 72 71 71 76 78 80 89 91 88 87 90 80 75

GFSSE_prec_cthk_093.txt.gz
RH
38 41 44 45 53 55 60 64 61 60 61 63 61 65 63 55 51 44 35 31 26 27 24 23 26 26 26 24 23 24 23 31 33 35 33 35 37 41 44 49 50 40 39
30 42 47 55 53 59 60 69 69 69 68 71 71 71 66 63 59 49 35 29 25 27 24 26 25 25 25 24 23 23 26 31 34 36 34 36 40 42 40 36 32 35 36
31 36 39 52 59 61 61 79 68 71 75 77 76 76 74 71 64 52 40 31 31 26 26 26 19 19 20 21 23 29 31 31 31 33 36 38 39 37 32 32 30 29 31
31 32 42 45 59 65 73 81 76 77 79 84 78 75 76 75 74 66 50 38 30 29 28 21 18 18 17 18 22 23 23 22 27 33 35 33 31 27 26 27 27 26 25
32 36 40 42 53 70 81 77 67 77 85 80 80 77 73 77 77 69 59 42 28 28 25 24 24 24 23 21 21 23 24 28 33 36 38 31 30 28 26 24 24 20 19
34 38 38 39 48 63 78 76 69 66 94 85 78 72 74 78 73 72 61 53 38 36 30 24 21 21 22 22 22 24 29 37 44 39 37 33 31 28 20 19 20 17 13
32 39 47 47 48 61 85 83 94 92 93 88 76 75 74 77 73 70 66 47 38 27 21 22 22 23 25 25 25 26 30 36 43 40 40 34 32 28 20 17 17 14 12
34 42 51 53 55 59 73 84 82 93 96 94 77 74 72 71 63 72 66 44 31 26 24 25 25 27 27 26 27 28 31 38 47 45 42 35 29 26 21 17 15 12 13
42 45 51 58 63 67 77 84 72 84 95 98 79 76 71 64 61 58 64 39 33 28 30 29 29 29 29 29 29 31 36 43 51 47 40 37 28 22 24 18 16 16 17
43 49 56 62 69 69 71 82 80 85 90 98 93 83 74 59 62 66 62 39 34 33 33 34 34 35 33 32 31 37 42 52 52 46 44 34 29 27 26 22 19 19 18
51 54 52 67 72 67 73 90 85 82 92 99 85 80 74 62 64 75 58 46 37 37 39 40 40 39 38 37 38 42 47 58 55 48 39 32 33 32 26 23 21 20 19
50 41 58 62 61 61 72 94 96 73 87 93 98 77 73 65 58 76 65 49 42 42 44 45 45 43 41 40 43 48 56 61 61 50 39 37 33 30 25 24 23 23 21
46 41 52 54 58 60 77 98 95 90 89 86 88 81 76 63 60 78 58 50 45 47 46 48 49 48 49 49 49 55 56 61 61 50 37 35 31 30 26 25 24 24 22
45 42 48 57 69 77 80 95 96 91 91 97 96 89 77 67 63 80 57 54 47 51 49 51 52 61 56 55 57 55 57 62 62 51 38 36 33 28 26 25 25 25 24
42 43 48 57 65 76 78 90 94 97 94 97 99 91 77 74 70 75 66 62 56 55 55 54 61 63 60 57 58 55 58 58 57 50 38 36 33 29 28 28 26 26 27
40 42 46 57 55 63 80 81 88 93 93 93 96 92 91 82 76 72 75 68 64 60 61 63 65 63 62 61 60 60 60 57 55 50 42 37 36 34 33 33 33 32 30
40 43 54 57 68 67 72 84 89 88 95 99 97 96 93 91 79 74 75 79 78 65 64 66 64 61 64 62 62 61 62 59 58 56 45 46 40 37 37 39 38 38 32
45 50 59 61 62 69 76 82 89 89 92 96 95 96 96 94 81 78 75 82 78 72 67 66 63 61 65 69 69 66 66 62 56 57 55 51 48 46 40 39 40 37 36
52 56 62 64 64 67 66 74 80 90 95 97 98 99 99 92 82 79 76 76 68 68 65 67 63 63 68 72 72 70 68 64 60 60 57 54 52 50 44 40 34 35 37
54 58 66 63 63 61 71 77 84 90 93 93 96 97 96 88 86 80 73 69 68 68 69 69 70 74 76 74 73 73 69 69 66 65 62 58 56 56 54 53 51 48 46
52 60 63 65 66 65 72 82 90 91 94 96 98 95 91 87 84 77 74 70 73 74 76 78 82 83 84 81 76 73 77 75 75 74 70 65 66 67 67 67 66 66 63
49 58 63 64 65 67 75 82 89 93 98 98 98 95 91 90 87 77 72 76 79 83 87 90 89 85 89 85 81 81 77 70 68 70 74 74 72 74 75 75 74 75 73
41 49 58 66 66 66 73 83 87 93 95 97 97 94 92 91 90 87 88 91 89 93 90 88 88 86 87 84 82 78 75 75 78 74 74 76 76 77 80 80 81 80 79
30 41 51 58 67 72 70 78 86 90 92 93 93 92 92 93 91 92 92 94 92 90 91 85 88 86 86 82 71 68 67 72 76 84 85 83 78 76 78 80 80 80 80
33 30 37 48 61 73 76 82 83 87 91 90 91 92 92 92 90 91 91 92 92 87 88 85 89 80 79 70 73 70 63 66 69 70 69 74 76 76 76 76 82 85 83
33 32 31 36 50 62 73 83 86 88 92 89 86 86 92 93 93 93 94 93 90 89 83 82 78 72 68 68 67 70 75 74 71 79 78 80 83 86 84 83 88 91 90

GFSSE_prec_cthk_099.txt.gz
RH
35 35 35 34 34 30 33 44 53 58 58 57 62 48 45 42 38 39 39 37 37 35 32 29 25 24 28 32 31 35 32 32 31 30 34 36 33 34 47 47 40 40 38
38 36 30 28 29 31 43 47 82 76 65 66 54 55 50 48 45 37 33 29 26 27 29 29 24 23 24 25 29 30 29 30 35 41 36 36 41 46 51 42 40 38 37
34 27 20 20 22 29 40 51 58 56 61 62 63 59 56 56 54 41 32 28 25 28 26 27 25 24 25 26 26 28 35 35 36 30 33 42 45 43 40 36 35 32 32
23 20 19 20 21 28 37 49 63 62 66 68 70 71 67 62 57 51 39 29 29 28 28 29 28 25 29 24 27 32 33 36 39 37 39 44 41 36 34 33 33 30 27
23 21 23 23 25 28 34 45 57 64 67 74 72 73 77 71 71 61 48 36 33 34 31 25 25 26 29 27 25 32 38 38 35 34 38 40 37 34 30 30 28 27 22
28 26 29 30 27 28 32 40 51 63 73 73 82 80 81 72 78 73 52 50 35 35 27 20 18 22 18 20 22 29 32 34 34 29 30 37 34 32 28 28 24 22 20
34 30 30 34 37 31 34 41 53 72 80 84 84 92 80 87 82 77 59 56 39 31 23 21 21 25 21 27 27 39 40 36 31 32 30 32 31 30 30 26 21 20 19
33 34 35 36 39 42 43 49 51 59 73 88 79 86 96 89 90 80 65 62 46 31 26 24 21 20 29 39 37 45 41 37 34 30 30 32 32 32 27 21 20 20 18
32 36 35 41 44 46 48 50 57 61 67 74 82 86 92 88 97 73 60 62 53 32 30 29 26 30 39 39 38 42 42 43 40 36 29 33 33 28 22 21 20 19 19
30 34 36 36 35 39 50 63 68 64 69 74 78 80 87 89 98 84 70 60 55 43 36 38 41 41 33 36 43 44 45 44 39 35 29 30 31 26 24 22 21 22 22
33 35 35 33 36 42 62 67 71 72 74 76 67 72 75 84 98 93 80 62 56 42 38 40 31 28 32 42 44 46 45 44 43 38 33 31 29 25 22 23 26 25 23
32 32 32 36 35 41 55 60 68 73 68 70 69 70 83 83 95 81 64 55 52 43 33 30 29 31 39 44 47 46 45 43 40 39 34 32 29 29 29 29 27 25 23
31 30 31 34 36 40 46 47 61 74 78 79 84 83 90 90 96 76 58 57 49 50 37 32 30 35 42 46 46 46 47 47 44 40 35 34 32 30 30 28 28 27 24
31 29 33 38 40 40 46 55 70 79 88 92 91 88 87 93 91 72 57 45 37 38 35 31 35 39 44 46 47 48 51 48 46 38 35 34 32 32 31 31 31 29 27
31 30 37 40 43 43 54 71 77 80 92 94 96 90 93 96 85 67 60 47 36 35 35 37 39 42 47 47 48 55 53 50 49 42 39 37 35 34 31 30 30 29 28
31 28 37 44 46 49 59 72 76 83 89 93 94 94 99 95 79 69 66 56 46 39 36 41 41 45 48 49 52 56 52 54 52 47 40 39 36 34 32 31 30 30 31
31 31 38 46 50 55 57 69 74 82 90 89 89 94 94 97 75 69 64 53 55 52 48 48 48 46 52 51 55 54 55 57 54 49 41 39 37 35 34 33 35 35 35
30 30 39 44 53 58 56 63 72 80 84 94 90 90 99 95 75 68 65 52 51 55 55 53 52 54 55 53 55 53 56 57 55 54 48 43 41 39 38 39 37 37 36
28 28 38 50 55 59 60 68 71 76 85 89 93 92 99 91 68 71 69 56 54 56 57 56 57 57 56 54 54 56 56 58 60 58 56 52 49 43 39 38 39 39 39
27 26 39 53 55 57 61 68 68 77 82 92 93 94 97 93 80 79 72 65 60 60 63 65 66 60 57 56 57 60 61 63 66 64 62 59 56 49 47 47 48 50 52
24 26 37 50 55 56 57 60 73 82 87 87 99 96 95 97 89 81 75 73 73 69 68 71 76 67 63 64 65 66 70 73 80 76 71 70 63 59 57 59 60 62 64
22 29 33 45 54 55 57 61 75 82 87 91 93 95 94 93 92 90 83 84 82 79 75 79 75 72 70 70 73 74 76 77 80 78 76 67 63 64 64 65 66 68 71
22 30 32 39 47 58 55 66 74 79 84 92 96 95 94 97 95 94 91 89 93 94 81 80 80 77 76 76 76 75 75 79 82 79 69 64 63 64 65 67 68 68 69
24 31 33 34 41 57 58 62 71 79 80 89 95 96 99 99 98 95 92 90 92 89 92 89 86 81 84 80 79 81 80 77 84 77 72 71 71 70 73 70 68 71 74
24 31 33 34 38 50 66 65 73 75 78 85 91 96 99 98 98 98 94 89 97 97 96 91 88 89 86 86 85 82 80 78 79 75 69 66 60 60 67 77 81 80 78
25 31 33 34 40 46 55 69 72 75 79 83 87 87 92 95 95 94 92 90 92 90 93 92 92 89 90 89 85 82 76 78 73 68 66 62 65 71 75 79 78 82 85